Redmond, OR

7:33 AM PST on February 20, 2017 (GMT -0800)
Roberts Field Airport

Weather History for KRDM - December, 2013

Change the Weather History Date:

Friday, December 6, 2013

  Actual Average Record
Temperature  
Mean Temperature 11 °F 31 °F  
Max Temperature 13 °F 41 °F 63 °F (2015)
Min Temperature 8 °F 21 °F -2 °F (1972)
Degree Days  
Heating Degree Days 54 34  
Month to date heating degree days 252 200  
Since 1 July heating degree days 2038 1974  
Cooling Degree Days 0 0  
Month to date cooling degree days 0 0  
Year to date cooling degree days 350 222  
Moisture  
Dew Point 8 °F    
Average Humidity 88    
Maximum Humidity 92    
Minimum Humidity 83    
Precipitation  
Precipitation 0.09 in 0.04 in 1.01 in (1983)
Month to date precipitation 0.30 0.24  
Year to date precipitation 4.73 7.98  
Sea Level Pressure  
Sea Level Pressure 29.98 in    
Wind  
Wind Speed 8 mph (NW)    
Max Wind Speed 16 mph    
Max Gust Speed 20 mph    
Visibility 2 miles    
Events Fog , Snow    
T = Trace of Precipitation, MM = Missing Value Source: NWS Daily Summary

Daily Weather History Graph

Daily Weather History Graph

Search for Another Location

Airport or City:

Trip Planner

Search our weather history database for the weather conditions in past years. The results will help you decide how hot, cold, wet, or windy it might be!

Date:

Astronomy

Dec. 06, 2013 Rise Set
Actual Time 7:25 AM PST 4:25 PM PST
Civil Twilight 6:52 AM PST 4:58 PM PST
Nautical Twilight 6:16 AM PST 5:35 PM PST
Astronomical Twilight 5:41 AM PST 6:10 PM PST
Moon 10:29 AM PST (12/6) 9:10 PM PST (12/6)
Length of Visible Light 10h 05m
Length of Day
8h 59m
Waxing Crescent, 20% of the Moon is Illuminated
Dec 6
Waxing Crescent
Dec 9
First Quarter
Dec 17
Full
Dec 25
Last Quarter
Jan 1
New

Hourly Weather History & Observations

Time (PST) Temp. Windchill Dew Point Humidity Pressure Visibility Wind Dir Wind Speed Gust Speed Precip Events Conditions
12:56 AM 12.0 °F 1.5 °F 9.0 °F 88% 30.17 in 10.0 mi NW 6.9 mph - N/A   Overcast
1:56 AM 10.9 °F 0.2 °F 9.0 °F 92% 30.17 in 10.0 mi NW 6.9 mph - N/A   Scattered Clouds
2:56 AM 10.0 °F -0.9 °F 8.1 °F 92% 30.18 in 10.0 mi NW 6.9 mph - N/A   Partly Cloudy
3:38 AM 9.0 °F -2.2 °F 7.0 °F 92% 30.05 in 10.0 mi NW 6.9 mph - N/A   Mostly Cloudy
3:56 AM 9.0 °F -2.2 °F 7.0 °F 92% 30.17 in 9.0 mi WNW 6.9 mph - N/A   Overcast
4:18 AM 8.1 °F -0.5 °F 7.0 °F 95% 30.04 in 8.0 mi NW 4.6 mph - N/A   Overcast
4:56 AM 9.0 °F 2.4 °F 7.0 °F 92% 30.18 in 8.0 mi WNW 3.5 mph - N/A   Overcast
5:27 AM 9.0 °F 0.6 °F 7.0 °F 92% 30.03 in 3.0 mi NW 4.6 mph - N/A   Overcast
5:56 AM 9.0 °F 2.4 °F 8.1 °F 96% 30.17 in 5.0 mi WNW 3.5 mph - 0.00 in Snow Light Snow
6:06 AM 9.0 °F 2.4 °F 7.0 °F 92% 30.02 in 3.0 mi NW 3.5 mph - 0.00 in   Overcast
6:56 AM 9.0 °F - 7.0 °F 92% 30.16 in 8.0 mi Calm Calm - 0.00 in   Overcast
7:23 AM 10.0 °F 3.6 °F 8.1 °F 92% 30.01 in 1.8 mi WNW 3.5 mph - 0.00 in Snow Light Snow
7:56 AM 10.0 °F - 8.1 °F 92% 30.14 in 0.8 mi Calm Calm - 0.00 in Snow Light Snow
8:32 AM 10.0 °F 3.6 °F 8.1 °F 92% 30.00 in 1.0 mi NNW 3.5 mph - 0.00 in Snow Light Snow
8:56 AM 10.0 °F 3.6 °F 8.1 °F 92% 30.14 in 1.0 mi North 3.5 mph - 0.00 in Snow Light Snow
9:18 AM 10.0 °F 3.6 °F 8.1 °F 92% 29.99 in 0.5 mi NNW 3.5 mph - 0.00 in Fog , Snow Snow
9:27 AM 10.9 °F 2.9 °F 8.1 °F 88% 29.99 in 0.2 mi NNW 4.6 mph - 0.01 in Fog , Snow Snow
9:37 AM 10.9 °F 2.9 °F 9.0 °F 92% 29.99 in 0.5 mi WNW 4.6 mph - 0.01 in Fog , Snow Snow
9:52 AM 10.4 °F 0.8 °F 8.6 °F 92% 29.99 in 1.0 mi NNW 5.8 mph - 0.02 in Snow Light Snow
9:56 AM 10.9 °F 2.9 °F 8.1 °F 88% 30.13 in 1.0 mi NW 4.6 mph - 0.02 in Snow Light Snow
10:15 AM 10.9 °F 1.4 °F 8.1 °F 88% 29.98 in 2.0 mi NW 5.8 mph - 0.00 in Snow Light Snow
10:22 AM 10.9 °F 1.4 °F 8.1 °F 88% 29.98 in 1.5 mi NW 5.8 mph - 0.00 in Snow Light Snow
10:56 AM 10.9 °F 1.4 °F 8.1 °F 88% 30.11 in 1.5 mi NW 5.8 mph - 0.00 in Snow Light Snow
11:15 AM 10.9 °F 0.2 °F 8.1 °F 88% 29.96 in 0.5 mi WNW 6.9 mph - 0.00 in Fog , Snow Snow
11:50 AM 10.4 °F -1.5 °F 8.6 °F 92% 29.94 in 1.0 mi NNW 8.1 mph - 0.00 in Snow Light Snow
11:56 AM 10.9 °F -0.8 °F 8.1 °F 88% 30.07 in 1.0 mi NW 8.1 mph - 0.00 in Snow Light Snow
12:11 PM 10.9 °F -1.8 °F 8.1 °F 88% 29.92 in 0.8 mi NNW 9.2 mph - 0.01 in Snow Light Snow
12:28 PM 10.9 °F -1.8 °F 8.1 °F 88% 29.92 in 0.5 mi NW 9.2 mph - 0.01 in Fog , Snow Light Snow
12:56 PM 10.9 °F -1.8 °F 9.0 °F 92% 30.04 in 0.8 mi NNW 9.2 mph - 0.02 in Snow Light Snow
1:29 PM 10.9 °F -3.4 °F 8.1 °F 88% 29.89 in 0.5 mi NNW 11.5 mph - 0.00 in Fog , Snow Snow
1:39 PM 10.9 °F -3.4 °F 8.1 °F 88% 29.89 in 0.8 mi NW 11.5 mph - 0.00 in Snow Light Snow
1:56 PM 10.9 °F -3.4 °F 8.1 °F 88% 30.02 in 0.5 mi NW 11.5 mph - 0.01 in Fog , Snow Snow
2:46 PM 10.9 °F -1.8 °F 9.0 °F 92% 29.87 in 0.2 mi NW 9.2 mph - 0.01 in Fog , Snow Snow
2:56 PM 10.9 °F 0.2 °F 9.0 °F 92% 30.01 in 0.5 mi NW 6.9 mph - 0.02 in Fog , Snow Light Snow
3:10 PM 10.9 °F -1.8 °F 9.0 °F 92% 29.87 in 0.2 mi NW 9.2 mph - 0.00 in Fog , Snow Snow
3:33 PM 10.9 °F -2.6 °F 9.0 °F 92% 29.86 in 0.5 mi NNW 10.4 mph - 0.01 in Fog , Snow Light Snow
3:56 PM 10.9 °F -4.1 °F 9.0 °F 92% 30.01 in 0.5 mi NNW 12.7 mph - 0.02 in Fog , Snow Light Snow
3:59 PM 10.9 °F -3.4 °F 9.0 °F 92% 29.87 in 1.0 mi NNW 11.5 mph - 0.00 in Snow Light Snow
4:12 PM 10.9 °F -3.4 °F 9.0 °F 92% 29.87 in 1.2 mi NW 11.5 mph - 0.00 in Snow Light Snow
4:20 PM 10.9 °F -1.8 °F 8.1 °F 88% 29.86 in 1.5 mi NNW 9.2 mph - 0.00 in Snow Light Snow
4:41 PM 10.0 °F -3.7 °F 8.1 °F 92% 29.87 in 2.0 mi NNW 10.4 mph - 0.00 in Snow Light Snow
4:50 PM 10.4 °F -5.4 °F 8.6 °F 92% 29.87 in 3.0 mi NW 13.8 mph - 0.00 in Snow Light Snow
4:56 PM 10.0 °F -3.7 °F 8.1 °F 92% 30.02 in 3.0 mi NNW 10.4 mph - 0.00 in Snow Light Snow
5:03 PM 10.0 °F -5.2 °F 8.1 °F 92% 29.87 in 2.0 mi NNW 12.7 mph - 0.00 in Snow Light Snow
5:21 PM 10.0 °F -5.2 °F 8.1 °F 92% 29.86 in 2.5 mi NNW 12.7 mph - 0.00 in Snow Light Snow
5:28 PM 10.0 °F -5.9 °F 8.1 °F 92% 29.86 in 2.0 mi NNW 13.8 mph - 0.00 in Snow Light Snow
5:37 PM 10.0 °F -6.5 °F 8.1 °F 92% 29.87 in 1.8 mi NW 15.0 mph - 0.00 in Snow Light Snow
5:46 PM 10.0 °F -4.5 °F 8.1 °F 92% 29.88 in 2.0 mi NW 11.5 mph - 0.00 in Snow Light Snow
5:56 PM 10.0 °F -4.5 °F 7.0 °F 87% 30.02 in 2.0 mi NW 11.5 mph - 0.00 in Snow Light Snow
6:29 PM 10.0 °F -5.2 °F 7.0 °F 87% 29.88 in 1.2 mi NW 12.7 mph - 0.00 in Snow Light Snow
6:34 PM 10.0 °F -5.9 °F 7.0 °F 87% 29.88 in 0.8 mi NW 13.8 mph - 0.00 in Snow Light Snow
6:56 PM 10.0 °F -4.5 °F 7.0 °F 87% 30.03 in 0.8 mi NW 11.5 mph - 0.00 in Snow Light Snow
7:08 PM 10.0 °F -4.5 °F 7.0 °F 87% 29.89 in 1.0 mi NW 11.5 mph - 0.00 in Snow Light Snow
7:20 PM 10.0 °F -3.7 °F 7.0 °F 87% 29.88 in 1.5 mi NW 10.4 mph - 0.00 in Snow Light Snow
7:53 PM 10.4 °F -3.3 °F 6.8 °F 85% 29.89 in 1.2 mi NW 10.4 mph - 0.00 in Snow Light Snow
7:56 PM 10.0 °F -4.5 °F 8.1 °F 92% 30.04 in 1.2 mi NW 11.5 mph - 0.00 in Snow Light Snow
8:41 PM 10.0 °F -3.7 °F 8.1 °F 92% 29.89 in 1.0 mi NW 10.4 mph - 0.00 in Snow Light Snow
8:56 PM 10.0 °F -4.5 °F 8.1 °F 92% 30.04 in 1.2 mi NW 11.5 mph - 0.00 in Snow Light Snow
9:56 PM 10.0 °F -4.5 °F 7.0 °F 87% 30.04 in 1.5 mi NW 11.5 mph - 0.00 in Snow Light Snow
10:56 PM 10.0 °F -5.9 °F 7.0 °F 87% 30.05 in 1.8 mi NNW 13.8 mph - 0.00 in Snow Light Snow
11:10 PM 9.0 °F -7.3 °F 7.0 °F 92% 29.91 in 2.0 mi NNW 13.8 mph - 0.00 in Snow Light Snow
11:28 PM 9.0 °F -6.6 °F 7.0 °F 92% 29.91 in 2.0 mi NNW 12.7 mph - 0.00 in Snow Light Snow
11:41 PM 9.0 °F -7.3 °F 6.1 °F 88% 29.91 in 1.8 mi NNW 13.8 mph - 0.00 in Snow Light Snow
11:49 PM 9.0 °F -7.9 °F 6.1 °F 88% 29.90 in 1.8 mi NW 15.0 mph - 0.00 in Snow Light Snow
11:56 PM 9.0 °F -5.1 °F 6.1 °F 88% 30.05 in 2.0 mi NNW 10.4 mph - 0.00 in Snow Light Snow